[[{"header":{"parameterUnit":"m.s-1","parameterCategory":1,"la1":30.2991,"la2":30.254,"lo1":-89.0895,"lo2":-89.0444,"dx":0.0017,"dy":0.0017,"nx":28,"ny":28,"refTime":"2022-11-16T03:00:00:Z","depth":0,"parameterNumber":2,"parameterNumberName":"U-component_of_WINDS"},"data":[0,0,0,0,0,0,0,0,0,0,0,0,0,0,0,0,0,0,0,0,0,0,0,0,0,0,0,0,0,0,0,0,0,0,0,0,0,0,0,0,0,0,0,0,0,0,0,0,0,0,0,0,0,0,0,0,0,0,0.1535,0.1535,0,0.1511,0.1511,0.1511,0.1508,0.1508,0.1508,0.1509,0.1483,0.1483,0.1482,0,0,0,0,0,0,0,0,0,0,0,0,0,0.1579,0.1578,0.1535,0.1535,0.1535,0.1511,0.1511,0.1511,0.1508,0.1508,0.1508,0.1509,0.1484,0.1483,0.1482,0,0,0,0,0,0,0,0,0,0,0,0,0,0.1558,0.1578,0.1535,0.1531,0.153,0.1512,0.1511,0.1511,0.1508,0.1508,0.1508,0.1509,0.1484,0.1483,0.1481,0.1466,0,0,0.1477,0.1477,0,0,0,0,0,0,0,0,0.1559,0.1556,0.1532,0.1531,0.153,0.1513,0.1517,0.1496,0.1508,0.1516,0.1509,0.1509,0.1493,0.1491,0.1486,0.1465,0.1464,0.1477,0.1476,0.1476,0.1475,0,0,0,0,0,0,0,0.1561,0.1557,0.1526,0.1531,0.153,0.153,0.1527,0.1513,0.1503,0.1515,0.1515,0.1512,0.1493,0.1487,0.1485,0.1463,0.1477,0.1476,0.1475,0.1475,0.143,0.143,0,0,0,0,0,0,0.1563,0.1559,0.1527,0.1525,0.1546,0.1529,0.1526,0.1518,0.1503,0.1501,0.1512,0.1512,0.1489,0.1487,0.1484,0.1465,0.1476,0.1475,0.1474,0.143,0.143,0.143,0,0,0,0,0,0,0.1564,0.156,0.1528,0.1542,0.1538,0.1527,0.1519,0.1517,0.1512,0.15,0.1499,0.1508,0.1489,0.1486,0.1471,0.1465,0.1474,0.1473,0.1431,0.143,0.143,0.1428,0,0,0,0,0,0,0.1565,0.1561,0.1554,0.1542,0.1537,0.1515,0.1519,0.1517,0.151,0.151,0.1496,0.1494,0.1489,0.1473,0.147,0.1463,0.1472,0.1431,0.1431,0.143,0.1429,0.1427,0.1426,0,0,0,0,0,0.1567,0.1555,0.1554,0.155,0.1529,0.1514,0.1512,0.1506,0.1509,0.1503,0.1496,0.1495,0.1466,0.1471,0.1468,0.146,0.1432,0.1431,0.143,0.1429,0.1428,0.1426,0,0,0,0,0,0,0.1566,0.1553,0.1552,0.1535,0.1526,0.1514,0.1506,0.1505,0.1494,0.1494,0.1488,0.1485,0.147,0.1464,0.147,0.1445,0.1449,0.1447,0.145,0.1448,0.1447,0.1449,0.1471,0,0,0,0,0,0.1564,0.1554,0.1542,0.1529,0.1524,0.1516,0.1509,0.1506,0.1496,0.1492,0.1483,0.1474,0.1463,0.1455,0.1444,0.1428,0.1425,0.1421,0.142,0.142,0.1418,0.1409,0.1408,0.1427,0.1427,0.1427,0,0,0.156,0.1551,0.1545,0.1529,0.1521,0.151,0.1512,0.1501,0.1492,0.149,0.1475,0.1469,0.1458,0.1442,0.1435,0.1436,0.1412,0.1418,0.1418,0.1417,0.1408,0.1406,0.1405,0.1426,0.1426,0.1426,0,0,0.1546,0.1539,0.1527,0.1519,0.1508,0.1503,0.15,0.1488,0.1484,0.1469,0.1467,0.1458,0.1439,0.1431,0.1424,0.1409,0.1408,0.1406,0.14,0.1392,0.139,0.1389,0.1384,0.1382,0.1405,0.1405,0.1405,0,0.1542,0.1526,0.1521,0.1509,0.1502,0.15,0.1488,0.1481,0.1467,0.1462,0.1464,0.1441,0.1433,0.1416,0.1412,0.1407,0.1404,0.1407,0.1391,0.139,0.1388,0.1383,0.1381,0.1404,0.1404,0.1404,0.1404,0,0.1521,0.151,0.1502,0.1488,0.148,0.1469,0.1462,0.1455,0.1453,0.1448,0.1433,0.1424,0.1411,0.1407,0.1405,0.139,0.1391,0.1392,0.1396,0.1386,0.1381,0.1379,0.1404,0.1404,0.1404,0.1404,0,0,0.1505,0.149,0.1487,0.1482,0.147,0.1461,0.1449,0.1437,0.1431,0.1422,0.1412,0.1397,0.1398,0.1391,0.1387,0.138,0.1369,0.1382,0.1382,0.138,0.1353,0.1352,0.1349,0.1369,0.1368,0.1368,0.1354,0,0.149,0.147,0.1465,0.1448,0.1437,0.1436,0.1426,0.1418,0.1413,0.1403,0.1398,0.1387,0.139,0.1385,0.1378,0.1372,0.1364,0.1373,0.1359,0.1359,0.1362,0.1347,0.1345,0.1332,0.1352,0.1351,0.1351,0,0.1469,0.146,0.1441,0.1431,0.1427,0.1418,0.1407,0.1398,0.1389,0.1386,0.1379,0.1376,0.1365,0.137,0.1354,0.136,0.1355,0.1351,0.1351,0.1348,0.1354,0.1344,0.1327,0.1325,0.1348,0.1348,0.1348,0,0.146,0.1442,0.1429,0.1424,0.1412,0.1406,0.1401,0.1392,0.1385,0.1376,0.1372,0.1361,0.1355,0.1348,0.1343,0.1347,0.1327,0.1332,0.1324,0.1325,0.132,0.132,0.1302,0.1317,0.1317,0.1317,0.1317,0,0.1443,0.1431,0.1424,0.1416,0.1403,0.1399,0.1387,0.1382,0.1374,0.1365,0.1364,0.1355,0.135,0.134,0.1337,0.1324,0.1322,0.1319,0.1318,0.1319,0.1319,0.1314,0.1315,0.1316,0.1317,0.1317,0.1317,0,0.1429,0.1424,0.1409,0.14,0.1397,0.1388,0.138,0.1372,0.1368,0.1356,0.1354,0.1347,0.1336,0.1331,0.1317,0.1315,0.1301,0.1301,0.1304,0.1303,0.1296,0.1297,0.1274,0.1271,0.1289,0.1288,0.1288,0,0.1418,0.141,0.1399,0.1393,0.1388,0.1378,0.1372,0.1368,0.1361,0.1351,0.1344,0.1333,0.1324,0.1308,0.1301,0.1291,0.1291,0.1284,0.1289,0.129,0.129,0.1291,0.129,0.1282,0.1282,0.1282,0.1282,0,0.14,0.1398,0.1389,0.1379,0.1371,0.1363,0.1355,0.135,0.1345,0.1338,0.1327,0.132,0.1307,0.1297,0.1287,0.1281,0.1281,0.128,0.1278,0.1278,0.128,0.1279,0.1301,0.1281,0.1281,0.1281,0.1281,0.1281,0.1387,0.1379,0.1371,0.1361,0.1355,0.1348,0.134,0.1335,0.1326,0.1315,0.1314,0.1302,0.1294,0.1281,0.1275,0.1266,0.1268,0.1265,0.1264,0.1263,0.1262,0.1283,0.1265,0.1265,0.1265,0.1265,0.1265,0,0.1368,0.1363,0.1354,0.1343,0.1336,0.1336,0.1328,0.1321,0.1311,0.1304,0.1296,0.1284,0.1274,0.1268,0.1258,0.1252,0.1251,0.1249,0.1249,0.1248,0.1262,0.1264,0.125,0.125,0.125,0.125,0.125,0.125,0.1358,0.1345,0.1342,0.1327,0.1322,0.1311,0.1306,0.1299,0.1294,0.128,0.1272,0.1268,0.1262,0.1251,0.1243,0.1241,0.1237,0.1235,0.1234,0.1246,0.1247,0.1249,0.1251,0.1235,0.1234,0.1221,0.1221,0.1221]},{"header":{"parameterUnit":"m.s-1","parameterCategory":1,"la1":30.2991,"la2":30.254,"lo1":-89.0895,"lo2":-89.0444,"dx":0.0017,"dy":0.0017,"nx":28,"ny":28,"refTime":"2022-11-16T03:00:00:Z","depth":0,"parameterNumber":3,"parameterNumberName":"V-component_of_WINDS"},"data":[0,0,0,0,0,0,0,0,0,0,0,0,0,0,0,0,0,0,0,0,0,0,0,0,0,0,0,0,0,0,0,0,0,0,0,0,0,0,0,0,0,0,0,0,0,0,0,0,0,0,0,0,0,0,0,0,0,0,-5.7826,-5.7827,0,-5.7907,-5.7908,-5.7909,-5.7881,-5.7879,-5.7877,-5.7876,-5.7954,-5.7957,-5.7961,0,0,0,0,0,0,0,0,0,0,0,0,0,-5.7644,-5.7647,-5.7826,-5.7827,-5.7828,-5.7907,-5.7908,-5.7909,-5.7881,-5.7879,-5.7877,-5.7875,-5.7953,-5.7957,-5.7961,0,0,0,0,0,0,0,0,0,0,0,0,0,-5.7723,-5.7648,-5.7826,-5.7824,-5.7824,-5.7907,-5.7908,-5.7909,-5.7882,-5.7879,-5.7876,-5.7874,-5.7951,-5.7956,-5.7962,-5.8049,0,0,-5.7979,-5.7981,0,0,0,0,0,0,0,0,-5.7719,-5.773,-5.7823,-5.7824,-5.7825,-5.7881,-5.7872,-5.7956,-5.7882,-5.786,-5.7876,-5.7873,-5.7931,-5.7938,-5.7959,-5.8053,-5.8056,-5.798,-5.7983,-5.7985,-5.7987,0,0,0,0,0,0,0,-5.7713,-5.7726,-5.7858,-5.7824,-5.7826,-5.7818,-5.7826,-5.7888,-5.7909,-5.7862,-5.786,-5.787,-5.7931,-5.7954,-5.7961,-5.8058,-5.7979,-5.7984,-5.7988,-5.799,-5.8228,-5.8231,0,0,0,0,0,0,-5.7708,-5.7722,-5.7855,-5.786,-5.7764,-5.7823,-5.7832,-5.7866,-5.7909,-5.7913,-5.7872,-5.7868,-5.7946,-5.7954,-5.7964,-5.807,-5.7985,-5.7991,-5.7994,-5.8225,-5.8229,-5.8232,0,0,0,0,0,0,-5.7704,-5.772,-5.7852,-5.7791,-5.7807,-5.7829,-5.7867,-5.7869,-5.7891,-5.7917,-5.792,-5.7892,-5.7944,-5.7956,-5.8029,-5.8072,-5.7993,-5.7998,-5.8222,-5.8226,-5.823,-5.8282,0,0,0,0,0,0,-5.7699,-5.7719,-5.7753,-5.7792,-5.781,-5.7917,-5.7869,-5.7872,-5.7902,-5.7897,-5.7936,-5.794,-5.7943,-5.8021,-5.8034,-5.8078,-5.8002,-5.8218,-5.8224,-5.8229,-5.8277,-5.8288,-5.8297,0,0,0,0,0,-5.7693,-5.7763,-5.7755,-5.7771,-5.7854,-5.792,-5.793,-5.7934,-5.7905,-5.7939,-5.7956,-5.7938,-5.8065,-5.8028,-5.8044,-5.809,-5.8215,-5.8222,-5.8229,-5.8272,-5.8286,-5.8297,0,0,0,0,0,0,-5.7726,-5.7768,-5.776,-5.7845,-5.7879,-5.7915,-5.7958,-5.7948,-5.799,-5.7984,-5.7986,-5.7994,-5.807,-5.8087,-5.8045,-5.8177,-5.8136,-5.8146,-5.8163,-5.8177,-5.8187,-5.8181,-5.8007,0,0,0,0,0,-5.7744,-5.7796,-5.7829,-5.7901,-5.7919,-5.7936,-5.7964,-5.7965,-5.8,-5.8014,-5.8035,-5.8069,-5.8116,-5.8147,-5.8192,-5.8279,-5.8287,-5.8318,-5.8329,-5.8337,-5.8346,-5.8394,-5.8408,-5.8254,-5.8254,-5.8254,0,0,-5.7781,-5.781,-5.7842,-5.7908,-5.7935,-5.7988,-5.7948,-5.8004,-5.8043,-5.8021,-5.8093,-5.811,-5.8147,-5.8228,-5.8265,-5.8245,-5.839,-5.8345,-5.8352,-5.8356,-5.8402,-5.8417,-5.843,-5.8259,-5.8258,-5.8257,0,0,-5.7874,-5.7902,-5.7965,-5.7994,-5.8036,-5.8047,-5.8062,-5.81,-5.8111,-5.8183,-5.8169,-5.8214,-5.8295,-5.8323,-5.8348,-5.8454,-5.8439,-5.8468,-5.8522,-5.8569,-5.8581,-5.8592,-5.863,-5.8644,-5.8477,-5.8477,-5.8477,0,-5.7914,-5.7994,-5.7999,-5.8058,-5.8088,-5.8073,-5.8137,-5.8163,-5.8217,-5.8237,-5.8214,-5.8318,-5.8342,-5.8429,-5.8456,-5.8476,-5.8493,-5.8464,-5.8579,-5.859,-5.86,-5.8637,-5.8651,-5.848,-5.848,-5.8479,-5.8479,0,-5.8041,-5.8097,-5.8143,-5.8198,-5.8233,-5.8294,-5.8307,-5.8341,-5.8339,-5.8352,-5.8426,-5.8455,-5.8506,-5.8527,-5.8524,-5.8614,-5.8601,-5.8579,-5.8537,-5.8618,-5.8653,-5.8667,-5.8485,-5.8484,-5.8483,-5.8482,0,0,-5.8157,-5.8216,-5.8233,-5.8258,-5.8304,-5.8346,-5.8407,-5.8459,-5.8489,-5.8526,-5.8577,-5.8647,-5.8628,-5.8656,-5.8656,-5.8697,-5.8781,-5.867,-5.8671,-5.869,-5.8883,-5.89,-5.8916,-5.8772,-5.8774,-5.8776,-5.888,0,-5.8255,-5.8363,-5.837,-5.8468,-5.852,-5.8507,-5.856,-5.8593,-5.8607,-5.8652,-5.8667,-5.8718,-5.8688,-5.8705,-5.8745,-5.8762,-5.882,-5.8755,-5.8818,-5.882,-5.881,-5.8934,-5.8951,-5.9048,-5.8894,-5.8896,-5.8898,0,-5.8383,-5.8428,-5.8531,-5.8572,-5.8594,-5.8641,-5.869,-5.8734,-5.8771,-5.8779,-5.8811,-5.8806,-5.8867,-5.8824,-5.8908,-5.8864,-5.8891,-5.8903,-5.8907,-5.8913,-5.8864,-5.8944,-5.9079,-5.9093,-5.8919,-5.8917,-5.8915,0,-5.8459,-5.8544,-5.8618,-5.864,-5.8688,-5.8722,-5.8743,-5.8779,-5.881,-5.8852,-5.8873,-5.8921,-5.8947,-5.8984,-5.8992,-5.8959,-5.9076,-5.9033,-5.9084,-5.9084,-5.9109,-5.9107,-5.925,-5.9125,-5.9125,-5.9125,-5.9125,0,-5.8567,-5.8631,-5.8653,-5.8698,-5.8769,-5.8776,-5.8846,-5.8865,-5.8897,-5.8945,-5.8936,-5.898,-5.8988,-5.9034,-5.904,-5.911,-5.9121,-5.9129,-5.913,-5.913,-5.9129,-5.9147,-5.9141,-5.9129,-5.9128,-5.9127,-5.9127,0,-5.8663,-5.868,-5.876,-5.88,-5.8812,-5.8863,-5.8896,-5.8939,-5.8953,-5.9014,-5.9029,-5.905,-5.9104,-5.9116,-5.918,-5.9184,-5.9266,-5.926,-5.9255,-5.9254,-5.9304,-5.93,-5.9464,-5.9486,-5.9347,-5.9348,-5.9349,0,-5.8732,-5.8781,-5.8828,-5.8861,-5.8885,-5.8937,-5.8969,-5.8978,-5.9012,-5.906,-5.9097,-5.9151,-5.9194,-5.9282,-5.9302,-5.9351,-5.9346,-5.94,-5.9353,-5.9352,-5.9347,-5.9345,-5.935,-5.9409,-5.9411,-5.9412,-5.9413,0,-5.8852,-5.8858,-5.8907,-5.8959,-5.8999,-5.904,-5.9079,-5.9106,-5.912,-5.9158,-5.9215,-5.9249,-5.9316,-5.9369,-5.9418,-5.9439,-5.9428,-5.9428,-5.9442,-5.9443,-5.9438,-5.9442,-5.928,-5.9424,-5.9423,-5.9422,-5.9421,-5.9421,-5.8937,-5.8981,-5.9021,-5.9076,-5.9107,-5.9144,-5.9187,-5.9207,-5.9255,-5.9311,-5.9313,-5.9375,-5.9412,-5.9477,-5.9501,-5.9549,-5.9532,-5.9552,-5.9558,-5.9563,-5.9568,-5.9431,-5.9558,-5.9557,-5.9557,-5.9557,-5.9557,0,-5.9057,-5.9083,-5.9133,-5.9189,-5.9233,-5.9221,-5.9264,-5.93,-5.9356,-5.9392,-5.9436,-5.9501,-5.9553,-5.9579,-5.963,-5.9664,-5.966,-5.9677,-5.9674,-5.9679,-5.958,-5.9563,-5.9679,-5.9679,-5.9679,-5.9679,-5.9679,-5.9679,-5.9124,-5.9199,-5.921,-5.93,-5.9324,-5.9387,-5.9412,-5.9446,-5.9476,-5.955,-5.9594,-5.9611,-5.9643,-5.9697,-5.9744,-5.975,-5.9769,-5.9789,-5.9792,-5.9699,-5.9686,-5.9674,-5.9658,-5.9793,-5.9793,-5.9888,-5.9889,-5.989]}]]